Regional Weather Roundup
Issued by NWS

Home | Current Version | Previous Version | Text Only | Print | Product List | Glossary Off
Versions: 1 2 3 4 5 6 7 8 9 10 11 12 13 14 15 16 17 18 19 20 21 22 23 24 25 26 27 28 29 30 31 32 33 34 35 36 37 38 39 40 41 42 43 44 45 46 47 48 49 50

616
ASUS45 KABQ 080210
RWRNM
NEW MEXICO REGIONAL WEATHER ROUNDUP
NATIONAL WEATHER SERVICE ALBUQUERQUE NM
700 PM MST WED DEC 07 2016

NOTE: "FAIR" MEANS FEW OR NO CLOUDS BELOW 12,000 FEET AGL WITH NO
       SIGNIFICANT WEATHER OR OBSTRUCTIONS TO VISION.

      THIS PRODUCT IS RELEASED AS TWO VERSIONS.  ONE VERSION NEAR
      THE TOP OF THE HOUR CONTAINING PRELIMINARY DATA FROM ALBUQUERQUE
      AND OTHER STATIONS.  A FINAL VERSION WITH ADDITIONAL DATA IS
      ISSUED ABOUT 10 MINUTES AFTER THE HOUR.

NMZ501-503-504-510>518-080300-
NORTHWEST PLATEAU/NORTHCENTRAL MOUNTAINS

CITY           SKY/WX    TMP DP  RH WIND       PRES   REMARKS
FARMINGTON     FAIR      26   4  38 NW7       30.17R WCI  18
LOS ALAMOS     FAIR      32   7  35 NW3       30.15R
SANTA FE       FAIR      29  11  47 NE10      30.14R WCI  20
TAOS           FAIR      27   7  43 SW8       30.14R WCI  18
ANGEL FIRE     FAIR      16   7  68 CALM      30.11R

$$
NMZ402-403-502-505>509-080300-
WESTCENTRAL MOUNTAINS/SOUTHWEST MOUNTAINS

CITY           SKY/WX    TMP DP  RH WIND       PRES   REMARKS
GALLUP         FAIR      28  14  55 NE8       30.15R WCI  20
GRANTS         FAIR      28  17  62 NW16      30.16R WCI  17

$$
NMZ407-409-411-412-080300-
SOUTHERN DESERTS

CITY           SKY/WX    TMP DP  RH WIND       PRES   REMARKS
DEMING         FAIR      50  35  56 W6        30.09R
LAS CRUCES     FAIR      52  31  45 SW9       30.09R
HOLLOMAN AFB   MOCLDY    51  27  39 SE6       30.11R
T OR C         FAIR      49  22  34 N9        30.07R

$$
NMZ519>523-080300-
CENTRAL VALLEYS/CENTRAL HIGHLANDS

CITY           SKY/WX    TMP DP  RH WIND       PRES   REMARKS
ALBUQUERQUE    MOCLDY    37  17  44 SE5       30.16R WCI  33
DOUBLE EAGLE   PTCLDY    32  16  51 N6        30.16R WCI  26
MORIARTY ARPT  FAIR      27  15  62 NE3       30.16R
CLINES CORNERS FAIR      28  16  60 CALM      30.17R
BELEN          FAIR      36  18  47 N8        30.16R WCI  30
SOCORRO        FAIR      43  20  40 N9        30.14R

$$
NMZ524>526-539-540-080300-
SOUTHCENTRAL MOUNTAINS

CITY           SKY/WX    TMP DP  RH WIND       PRES   REMARKS
RUIDOSO        FAIR      37  25  60 E13       30.18R WCI  29

$$
NMZ527>531-080300-
NORTHEAST HIGHLANDS/NORTHEAST PLAINS

CITY           SKY/WX    TMP DP  RH WIND       PRES   REMARKS
LAS VEGAS      FAIR      16   7  67 E7        30.19R WCI   6
RATON          FAIR      13   5  70 NE10      30.22R WCI   0
CLAYTON        FAIR      15  12  88 NE14      30.31R WCI   0

$$
NMZ532>537-080300-
EASTCENTRAL PLAINS

CITY           SKY/WX    TMP DP  RH WIND       PRES   REMARKS
TUCUMCARI      MOCLDY    24  15  68 NE17      30.32R WCI  11
CANNON AFB     FAIR      26  19  73 NE23      30.26R WCI  12
CLOVIS AIRPORT FAIR      27  14  59 NE17G24   30.26R WCI  14

$$
NMZ028-029-538-080300-
SOUTHEAST PLAINS

CITY           SKY/WX    TMP DP  RH WIND       PRES   REMARKS
ROSWELL        FAIR      41  25  53 NE15G24   30.18R
ARTESIA        FAIR      45  39  81 E12       30.17R
CARLSBAD       NOT AVBL


$$




USA.gov is the U.S. government's official web portal to all federal, state and local government web resources and services.